Weather History for KMDD - May, 2013

Change the Weather History Date:

Friday, May 24, 2013

  Actual Average (KMAF) Record (KMAF)
Temperature  
Mean Temperature 76 °F 76 °F  
Max Temperature 87 °F 90 °F 108 °F (2000)
Min Temperature 66 °F 62 °F 48 °F (1940)
Cooling Degree Days 11 11  
Month to date cooling degree days 198  
Year to date cooling degree days 306  
Growing Degree Days 26 (Base 50)    
Moisture  
Dew Point 55 °F    
Average Humidity 50    
Maximum Humidity 69    
Minimum Humidity 34    
Precipitation  
Precipitation 0.00 in 0.07 in 1.86 in (2003)
Month to date precipitation 1.22  
Year to date precipitation 3.74  
Sea Level Pressure  
Sea Level Pressure 30.08 in    
Wind  
Wind Speed 15 mph (ESE)    
Max Wind Speed 28 mph    
Max Gust Speed 37 mph    
Visibility 10 miles    
Events      
T = Trace of Precipitation, MM = Missing Value Source: NWS Daily Summary

Daily Weather History Graph

Daily Weather History Graph

Search for Another Location

Airport or City:

Trip Planner

Search our weather history database for the weather conditions in past years. The results will help you decide how hot, cold, wet, or windy it might be!

Date:

Astronomy

May. 24, 2013 Rise Set
Actual Time 6:45 AM CDT 8:45 PM CDT
Civil Twilight 6:18 AM CDT 9:12 PM CDT
Nautical Twilight 5:45 AM CDT 9:45 PM CDT
Astronomical Twilight 5:09 AM CDT 10:21 PM CDT
Moon 8:31 PM CDT (5/24) 6:16 AM CDT (5/24)
Length of Visible Light 14h 54m
Length of Day
13h 59m
Full, 100% of the Moon is Illuminated
May 24
Full
May 24
Full
May 31
Last Quarter
Jun 8
New
Jun 16
First Quarter

Hourly Weather History & Observations

Time (CDT) Temp. Heat Index Dew Point Humidity Pressure Visibility Wind Dir Wind Speed Gust Speed Precip Events Conditions
12:15 AM 68.9 °F - 57.2 °F 66% 30.12 in 10.0 mi ESE 18.4 mph 26.5 mph N/A   Clear
12:35 AM 68.5 °F - 55.8 °F 64% 30.10 in 10.0 mi East 20.7 mph 26.5 mph N/A   Clear
12:55 AM 70.3 °F - 54.5 °F 57% 30.08 in 7.0 mi East 24.2 mph 36.8 mph N/A   Scattered Clouds
1:15 AM 68.9 °F - 56.3 °F 64% 30.10 in 5.0 mi ESE 18.4 mph 36.8 mph N/A   Haze
1:35 AM 69.1 °F - 55.6 °F 62% 30.11 in 10.0 mi East 27.6 mph 36.8 mph N/A   Scattered Clouds
1:55 AM 68.4 °F - 55.6 °F 64% 30.11 in 7.0 mi East 24.2 mph 34.5 mph N/A   Clear
2:15 AM 67.3 °F - 55.8 °F 66% 30.10 in 7.0 mi ESE 21.9 mph 31.1 mph N/A   Clear
2:35 AM 66.9 °F - 55.9 °F 68% 30.09 in 10.0 mi East 11.5 mph 20.7 mph N/A   Clear
2:55 AM 67.8 °F - 54.1 °F 62% 30.09 in 10.0 mi ESE 12.7 mph 19.6 mph N/A   Clear
3:15 AM 69.3 °F - 52.2 °F 54% 30.08 in 10.0 mi ESE 15.0 mph 25.3 mph N/A   Clear
3:35 AM 69.4 °F - 51.4 °F 53% 30.07 in 10.0 mi ESE 17.3 mph 27.6 mph N/A   Clear
3:55 AM 69.3 °F - 51.8 °F 54% 30.07 in 10.0 mi ESE 21.9 mph 28.8 mph N/A   Clear
4:15 AM 69.8 °F - 50.9 °F 51% 30.06 in 10.0 mi ESE 18.4 mph 25.3 mph N/A   Clear
4:35 AM 69.8 °F - 50.5 °F 50% 30.05 in 10.0 mi ESE 18.4 mph 27.6 mph N/A   Clear
4:55 AM 69.3 °F - 50.4 °F 51% 30.05 in 10.0 mi SE 13.8 mph 27.6 mph N/A   Clear
5:15 AM 69.3 °F - 50.5 °F 51% 30.04 in 10.0 mi SE 12.7 mph 21.9 mph N/A   Clear
5:35 AM 70.2 °F - 49.6 °F 48% 30.03 in 10.0 mi SE 17.3 mph 24.2 mph N/A   Clear
5:55 AM 71.6 °F - 48.4 °F 44% 30.03 in 10.0 mi SE 17.3 mph 23.0 mph N/A   Clear
6:15 AM 72.0 °F - 48.4 °F 43% 30.04 in 10.0 mi SE 16.1 mph 21.9 mph N/A   Clear
6:35 AM 71.6 °F - 49.3 °F 45% 30.04 in 10.0 mi SE 15.0 mph 25.3 mph N/A   Clear
6:55 AM 71.6 °F - 50.0 °F 46% 30.05 in 10.0 mi SSE 16.1 mph 23.0 mph N/A   Clear
7:15 AM 71.1 °F - 50.9 °F 49% 30.06 in 10.0 mi SE 11.5 mph 18.4 mph N/A   Clear
7:35 AM 70.9 °F - 51.8 °F 51% 30.07 in 10.0 mi SSE 10.4 mph - N/A   Clear
7:55 AM 70.9 °F - 52.5 °F 52% 30.08 in 10.0 mi SE 8.1 mph - N/A   Clear
8:15 AM 71.2 °F - 53.2 °F 53% 30.10 in 10.0 mi SSE 8.1 mph - N/A   Clear
8:35 AM 71.4 °F - 53.8 °F 54% 30.13 in 10.0 mi East 11.5 mph - N/A   Clear
8:55 AM 71.6 °F - 54.5 °F 55% 30.13 in 10.0 mi East 10.4 mph 16.1 mph N/A   Clear
9:15 AM 71.8 °F - 54.5 °F 54% 30.13 in 10.0 mi East 11.5 mph - N/A   Clear
9:35 AM 72.5 °F - 54.7 °F 53% 30.14 in 10.0 mi ESE 4.6 mph - N/A   Clear
9:55 AM 73.4 °F - 54.9 °F 52% 30.14 in 10.0 mi ESE 3.5 mph - N/A   Clear
10:15 AM 74.5 °F - 54.9 °F 50% 30.14 in 10.0 mi SSE 3.5 mph - N/A   Clear
10:35 AM 73.9 °F - 54.9 °F 51% 30.14 in 10.0 mi SSE 4.6 mph - N/A   Clear
10:55 AM 74.8 °F - 54.7 °F 49% 30.14 in 10.0 mi Calm Calm - N/A   Clear
11:15 AM 76.1 °F - 54.9 °F 48% 30.13 in 10.0 mi ESE 6.9 mph - N/A   Clear
11:35 AM 77.2 °F - 54.7 °F 46% 30.13 in 10.0 mi Calm Calm - N/A   Clear
11:55 AM 77.7 °F - 54.9 °F 45% 30.13 in 10.0 mi SE 5.8 mph - N/A   Clear
12:15 PM 79.0 °F - 54.9 °F 43% 30.12 in 10.0 mi ESE 8.1 mph - N/A   Clear
12:35 PM 79.7 °F - 54.5 °F 42% 30.12 in 10.0 mi Calm Calm - N/A   Clear
12:55 PM 81.5 °F 81.0 °F 54.7 °F 40% 30.10 in 10.0 mi ESE 4.6 mph 9.2 mph N/A   Clear
1:15 PM 82.2 °F 81.5 °F 55.0 °F 39% 30.10 in 10.0 mi East 11.5 mph 18.4 mph N/A   Clear
1:35 PM 82.9 °F 82.0 °F 55.2 °F 38% 30.09 in 10.0 mi ESE 10.4 mph 19.6 mph N/A   Clear
1:55 PM 82.8 °F 82.1 °F 56.1 °F 40% 30.08 in 10.0 mi SSE 9.2 mph 19.6 mph N/A   Clear
2:15 PM 82.9 °F 82.3 °F 56.5 °F 40% 30.08 in 10.0 mi SSE 13.8 mph 18.4 mph N/A   Clear
2:35 PM 84.0 °F 83.3 °F 57.0 °F 40% 30.08 in 10.0 mi ESE 15.0 mph 19.6 mph N/A   Clear
2:55 PM 84.6 °F 83.5 °F 56.7 °F 38% 30.07 in 10.0 mi SSE 11.5 mph 17.3 mph N/A   Clear
3:15 PM 84.6 °F 83.5 °F 56.1 °F 38% 30.06 in 10.0 mi SE 9.2 mph 18.4 mph N/A   Clear
3:35 PM 85.5 °F 84.1 °F 55.6 °F 36% 30.05 in 10.0 mi ESE 12.7 mph 18.4 mph N/A   Clear
3:55 PM 85.6 °F 84.5 °F 56.3 °F 37% 30.04 in 10.0 mi SE 12.7 mph 19.6 mph N/A   Clear
4:15 PM 85.5 °F 84.3 °F 56.3 °F 37% 30.03 in 10.0 mi ESE 12.7 mph - N/A   Clear
4:35 PM 85.5 °F 84.3 °F 56.3 °F 37% 30.02 in 10.0 mi East 8.1 mph 16.1 mph N/A   Clear
4:55 PM 86.5 °F 85.1 °F 55.6 °F 35% 30.01 in 10.0 mi ESE 11.5 mph 17.3 mph N/A   Clear
5:15 PM 86.0 °F 84.5 °F 55.6 °F 35% 30.01 in 10.0 mi ESE 9.2 mph 16.1 mph N/A   Clear
5:35 PM 86.9 °F 85.3 °F 55.6 °F 34% 30.01 in 10.0 mi East 10.4 mph - N/A   Clear
5:55 PM 85.8 °F 84.7 °F 56.7 °F 37% 30.02 in 10.0 mi ESE 13.8 mph 19.6 mph N/A   Clear
6:15 PM 85.1 °F 84.1 °F 56.5 °F 38% 30.02 in 10.0 mi ESE 13.8 mph 19.6 mph N/A   Clear
6:35 PM 84.2 °F 83.5 °F 57.2 °F 40% 30.02 in 10.0 mi ESE 13.8 mph 23.0 mph N/A   Clear
6:55 PM 83.3 °F 82.6 °F 56.8 °F 40% 30.02 in 10.0 mi East 16.1 mph 24.2 mph N/A   Clear
7:15 PM 82.4 °F 81.9 °F 56.5 °F 41% 30.02 in 10.0 mi East 17.3 mph - N/A   Clear
7:35 PM 81.5 °F 81.3 °F 56.5 °F 42% 30.03 in 10.0 mi ESE 17.3 mph 21.9 mph N/A   Clear
7:55 PM 80.2 °F 80.3 °F 55.0 °F 42% 30.04 in 10.0 mi SE 16.1 mph - N/A   Clear
8:15 PM 79.3 °F - 55.0 °F 43% 30.04 in 10.0 mi SE 19.6 mph 24.2 mph N/A   Clear
8:35 PM 78.8 °F - 55.8 °F 45% 30.06 in 10.0 mi ESE 12.7 mph 21.9 mph N/A   Clear
8:55 PM 77.2 °F - 59.0 °F 53% 30.07 in 10.0 mi ESE 15.0 mph 24.2 mph N/A   Clear
9:15 PM 76.1 °F - 59.4 °F 56% 30.07 in 10.0 mi ESE 17.3 mph 23.0 mph N/A   Clear
9:35 PM 75.2 °F - 60.1 °F 59% 30.08 in 10.0 mi ESE 15.0 mph 21.9 mph N/A   Clear
9:55 PM 74.3 °F - 61.2 °F 63% 30.09 in 10.0 mi ESE 11.5 mph 21.9 mph N/A   Clear
10:15 PM 73.4 °F - 61.3 °F 66% 30.09 in 10.0 mi ESE 15.0 mph 23.0 mph N/A   Clear
10:35 PM 73.0 °F - 61.0 °F 66% 30.10 in 10.0 mi ESE 15.0 mph 20.7 mph N/A   Clear
10:55 PM 72.5 °F - 60.6 °F 66% 30.10 in 10.0 mi ESE 15.0 mph 20.7 mph N/A   Clear
11:15 PM 71.6 °F - 59.9 °F 66% 30.12 in 10.0 mi ESE 13.8 mph 19.6 mph N/A   Clear
11:35 PM 70.7 °F - 59.2 °F 67% 30.12 in 10.0 mi ESE 15.0 mph 20.7 mph N/A   Clear
11:55 PM 70.0 °F - 59.4 °F 69% 30.12 in 10.0 mi ESE 12.7 mph - N/A   Clear